STARLINK-5597, 55403

Orbit data source: Space-Track

STARLINK-5597, 55403 is a payload satellite owned by SpaceX/Seattle (US) in LEO that was launched on Tue, 31 Jan 2023 UTC via an FALCON 9 launch vehicle from the Air Force Western Test Range (AFWTR). Payload-class satellites include a variety of spacecraft equipped with specific instruments for various scientific and technological missions. These include communications satellites like Starlink; space stations such as the ISS; scientific satellites like the Hubble; Earth observation satellites from companies like Planet Labs, Umbra, and HawkEye 360; GPS; miniature CubeSats for education and research; and military/defense satellites.

Loading next visibility...
Identifier
55403, 2023-014N
Orbit
LEO
Country
Flag of USUS
Related business
Manufacturer
SpaceX/Seattle
Mission
Operational Commercial Communications
Bus & Motor
STARLINK, Unknown motor
Mass
305 kg wet, ~290 kg dry
Launch date (UTC)
2023-01-31 (3 years ago)
Launch vehicle
FALCON 9
Launch site
Air Force Western Test Range (AFWTR)
Object type
Payload
Rocket body
Debris
Shape & HBR
Box + 1 Pan, 10.1 m
Radar Cross Section
13.562 m², Large (>1 m²)

Expand to show TLE details & history
Last TLE update: 2 days ago

TLE from 2 days ago
0 STARLINK-5597
1 55403U 23014N   26171.35266426 -.00000082  00000-0  88847-6 0  9990
2 55403  70.0002 165.5913 0003118 271.2315  88.8487 14.98326621187430
Epoch: 2026-06-20T08:27Z
TLE epoch observation values (Epoch: 2026-06-20T08:27:50.192Z)
Latitude
0.00002°
Longitude
130.06366°
Altitude
574.447 km
Speed
7.574 km/s
True Right ascension
11h 02m 21s
True Declination
0° 00' 00"
Sunlit
Object was in daylight at epoch
Visualization orbit readout
Latitude
Unknown
Longitude
Unknown
Altitude
Unknown
Speed
Unknown
Apparent Right ascension
Unknown
Apparent Declination
Unknown
Sunlit
N/A
Visualization observer readout
Local Sidereal Time
21:24:51
Azimuth
Unknown
Elevation
Unknown
Doppler factor
Unknown
Orbital elements
Apogee altitude
572.181 km
Perigee altitude
567.848 km
Semi-major axis
6,948.152 km
Eccentricity
0.00031
Inclination
70.0002°
RAAN
165.5913°
Arg. of periapsis
271.2315°
True anomaly
88.88442°
Mean anomaly
88.8487°
Eccentric anomaly
88.86656°
Mean motion
3.74748 °/min
Orbital period
96.06 mins
BSTAR
8.8847e-7
Loading maneuver chart data...
Computing Atmospheric mass density...

Documentation

Showing up to 5 results
|